Vertical_Velocity
0 0 -1 0 -1 0 1 0 0 0 0 0 0 -1 0 -1 0 -1 -0 -0 0 -0 1 -0 -0 -0 0 -1 -1 -0 -0 -0 -0 -0 0 -0 -1 -1 -0 -0 -1 -1 -1
-2 -1 0 0 0 1 1 0 -1 -1 -0 -1 -1 -0 -1 0 1 -0 -0 -0 0 1 1 0 -0 1 0 0 1 -2 -0 0 1 0 0 1 -0 -1 0 -0 -1 -1 -2
0 1 -1 -0 1 1 -1 1 0 -1 -0 -0 -1 -0 -0 -1 1 -0 -0 -0 0 -1 2 1 1 -1 -1 1 2 0 -1 -0 -0 -1 -1 -1 -0 -1 0 0 -0 -1 -0
1 -2 1 -1 1 1 1 -1 -1 1 -0 0 -0 -0 -2 -1 -1 0 -0 0 1 -0 -1 1 1 0 -0 -0 0 2 1 1 1 -1 -1 1 -0 -1 -1 -1 -1 -0 -1
1 -3 -1 -0 0 -0 -0 1 0 2 -0 -0 -1 0 -1 -1 -2 -1 0 1 -0 1 -1 -1 0 1 0 -0 -0 -0 1 1 2 -0 -0 -1 -1 0 -0 -1 -0 -0 -0
1 -1 1 1 0 -0 -1 -1 -2 -1 -0 0 -1 -0 -1 1 -1 -1 0 -1 -2 -1 0 1 0 0 0 1 1 -0 0 2 2 -1 1 -1 -1 -0 -0 0 0 -0 0
1 2 -4 -2 -0 0 -3 1 -0 3 -0 -3 -1 0 0 -0 0 -1 1 -1 1 -1 -2 -1 -0 -0 -0 0 1 2 1 -0 1 -2 -2 1 0 0 -1 -1 -0 0 1
2 1 0 0 1 -0 -0 -1 0 1 1 -0 -1 -3 -0 0 -1 -1 0 -0 1 0 -1 -1 -0 0 -0 -1 -0 2 2 2 2 -0 0 0 1 0 -0 1 -0 -1 -0
0 1 2 1 -2 -0 -1 0 -0 -0 0 -1 -1 -1 0 1 1 -1 -0 -0 -1 2 0 0 -0 -1 0 1 -0 -0 1 1 2 -1 1 1 0 -0 -0 -0 -1 -1 -2
-2 0 1 1 2 0 -1 -1 1 -1 -0 0 2 1 -0 -2 -1 -1 -0 -1 -0 2 2 -0 -1 -0 0 0 1 1 1 -0 3 -4 3 1 2 1 0 0 1 1 0
-3 -2 -1 -1 -1 -1 0 -0 -1 -0 -0 -1 -1 -0 0 -0 -1 -2 -2 -1 -0 -0 1 -1 -1 -2 -2 -0 -0 1 2 1 3 -3 3 1 1 1 1 1 1 1 2
-3 -1 -2 -1 -1 -1 -0 -0 -1 -1 -0 -0 1 0 0 -0 -0 -1 0 -1 -1 -1 0 -1 -0 -2 -1 0 -0 1 2 2 2 -1 3 0 0 -0 -0 0 1 1 0
1 -1 -2 -1 -2 0 -0 1 -1 -0 0 -1 -1 1 -0 -1 -0 -2 -1 0 0 0 0 -0 -0 -1 -1 -0 -1 0 0 1 2 -1 1 0 1 -0 1 0 0 0 1
-1 -2 -1 -1 -0 -1 -1 -0 -1 1 -0 2 0 -1 -1 -0 0 1 -0 -2 -0 -1 -0 0 -1 -2 -0 -1 -1 0 1 -1 2 1 0 0 -1 -0 -1 0 -0 1 1
1 -0 -4 -1 -1 -1 2 -0 -0 -1 -1 0 3 -0 1 0 -1 0 -0 -2 1 1 1 -1 -0 1 -0 0 -1 1 -1 -0 0 -1 -2 1 0 -1 -0 1 1 1 0
-2 -1 1 2 -0 -1 -0 0 1 1 -0 -1 -2 2 1 -1 0 1 1 -1 0 1 -0 -0 1 1 -0 0 1 -3 1 1 0 1 -2 -1 -0 -0 -2 0 -0 0 0
3 4 -0 -3 -2 -1 -1 -1 1 1 -1 1 0 -1 1 1 -1 -0 0 1 0 0 -1 2 -0 1 -0 -1 1 0 -0 -2 -0 0 2 0 -0 -2 -0 1 0 -0 -0
-3 -4 -2 -8 -2 -1 1 -1 0 1 1 -2 3 -1 3 3 1 -3 1 3 -0 1 -1 -0 -0 -2 1 -1 1 -0 2 -1 -1 0 1 -0 -0 -1 2 -0 1 -0 -1
2 0 1 0 -3 1 2 2 -3 1 -1 5 -5 2 4 3 3 0 -3 4 -1 3 -1 -3 -1 7 -0 -0 -1 -4 -1 -0 -1 1 -1 1 -0 2 -2 -1 0 -0 0
-3 -1 2 0 -1 -5 -3 -4 2 -1 2 3 3 -4 3 0 5 2 -1 4 5 6 1 4 -3 -3 5 3 1 -1 -3 -1 -0 2 -3 0 1 2 -0 1 -1 2 2
-7 -5 -4 -2 2 -3 -7 -3 -2 1 -2 -2 5 -0 -3 2 3 2 5 1 4 8 3 2 -0 -1 3 2 -1 -1 -0 -1 -0 3 -3 -2 3 -1 1 -1 -3 -2 -3
-3 -5 -8 -2 2 6 -4 -4 -4 0 -1 -4 -1 7 -0 0 5 1 3 4 4 4 6 4 2 -1 0 4 -1 10 -4 1 6 -2 -2 -2 3 -1 4 -0 2 -0 -2
-4 -4 -6 -2 -3 0 12 -3 -2 1 5 2 4 5 10 -0 2 0 2 3 3 5 5 1 2 3 -1 -4 8 -1 -6 7 8 -2 1 -0 0 0 -0 -1 -4 2 2
-1 -6 -8 -2 -1 -5 2 1 -4 -0 3 7 2 1 9 7 -4 2 0 -1 1 4 4 3 -2 3 -14 6 -4 6 -4 -2 4 4 0 1 1 -1 -1 -0 -2 -2 1
-1 10 4 -2 -4 -3 1 5 3 -0 2 0 -5 -3 14 7 3 2 1 4 0 7 -0 8 1 -7 0 -0 3 1 -1 3 8 16 11 11 10 1 1 -2 -5 -4 -0
-1 -3 -9 -3 -6 -2 -1 2 3 3 1 -1 -2 -2 3 4 -0 -2 2 0 3 -1 2 6 2 3 10 14 7 0 -0 0 12 13 -1 6 -0 8 -2 -1 3 4 5
Height
5879 5879 5880 5881 5882 5884 5886 5888 5889 5890 5891 5892 5892 5892 5892 5893 5892 5892 5891 5892 5892 5892 5892 5891 5890 5890 5890 5890 5891 5890 5889 5889 5888 5888 5888 5888 5888 5887 5887 5887 5887 5886 5885
5877 5878 5878 5879 5879 5881 5883 5885 5886 5887 5889 5890 5890 5891 5891 5892 5892 5891 5891 5891 5891 5891 5891 5891 5891 5890 5890 5890 5890 5890 5889 5889 5888 5888 5888 5888 5887 5887 5886 5886 5886 5886 5885
5875 5876 5876 5877 5877 5878 5879 5881 5882 5884 5885 5887 5888 5889 5889 5890 5891 5891 5890 5890 5890 5890 5890 5890 5890 5890 5890 5889 5889 5889 5889 5889 5888 5888 5887 5887 5887 5886 5886 5886 5885 5885 5885
5872 5873 5874 5875 5876 5876 5877 5877 5879 5879 5882 5883 5884 5885 5886 5887 5888 5888 5889 5889 5889 5889 5889 5889 5889 5889 5889 5889 5889 5888 5888 5888 5888 5887 5886 5886 5887 5886 5886 5885 5885 5884 5884
5868 5869 5871 5872 5873 5874 5875 5875 5876 5877 5877 5879 5880 5881 5883 5884 5884 5885 5886 5886 5886 5887 5887 5887 5887 5888 5888 5888 5888 5888 5888 5887 5887 5886 5886 5885 5885 5885 5885 5885 5884 5884 5883
5865 5866 5867 5868 5870 5871 5872 5873 5873 5874 5875 5875 5876 5877 5878 5879 5880 5881 5883 5883 5883 5884 5884 5885 5885 5885 5886 5886 5886 5886 5886 5886 5886 5885 5885 5884 5884 5884 5883 5883 5882 5882 5882
5860 5862 5862 5863 5865 5867 5868 5869 5870 5871 5871 5873 5873 5874 5874 5874 5874 5875 5877 5878 5879 5881 5881 5882 5882 5883 5883 5883 5884 5884 5884 5883 5883 5882 5883 5883 5883 5883 5882 5882 5881 5881 5880
5854 5856 5857 5858 5860 5862 5863 5864 5865 5866 5867 5868 5869 5870 5870 5870 5870 5869 5871 5873 5875 5876 5877 5878 5879 5880 5880 5880 5880 5881 5881 5881 5881 5880 5880 5880 5880 5880 5879 5879 5879 5879 5878
5848 5849 5851 5853 5854 5855 5857 5859 5860 5861 5862 5863 5864 5865 5866 5867 5867 5866 5865 5867 5869 5871 5872 5873 5875 5876 5876 5877 5877 5878 5878 5878 5877 5877 5877 5877 5877 5877 5877 5877 5876 5876 5875
5841 5843 5844 5846 5848 5849 5851 5852 5854 5856 5857 5858 5859 5861 5861 5862 5862 5862 5862 5862 5863 5864 5866 5868 5869 5870 5871 5872 5873 5874 5874 5874 5874 5873 5874 5873 5873 5873 5873 5873 5872 5872 5871
5834 5835 5837 5839 5840 5843 5844 5845 5847 5849 5850 5852 5854 5855 5855 5856 5856 5858 5858 5858 5859 5860 5861 5862 5862 5863 5865 5866 5867 5868 5869 5869 5869 5869 5869 5869 5868 5869 5868 5868 5868 5867 5866
5827 5828 5829 5830 5832 5835 5837 5838 5840 5841 5843 5845 5847 5849 5850 5850 5851 5851 5853 5853 5855 5855 5856 5856 5856 5857 5857 5859 5861 5862 5863 5863 5864 5863 5864 5863 5863 5863 5863 5863 5862 5862 5861
5820 5820 5821 5822 5823 5825 5828 5830 5832 5834 5834 5836 5839 5841 5842 5843 5845 5846 5847 5847 5848 5850 5851 5851 5851 5852 5852 5852 5853 5854 5855 5856 5857 5856 5857 5858 5858 5858 5857 5857 5857 5856 5856
5815 5815 5814 5814 5815 5816 5818 5820 5823 5825 5826 5828 5830 5832 5834 5836 5837 5839 5841 5841 5843 5844 5844 5845 5846 5846 5846 5846 5847 5848 5849 5849 5850 5850 5851 5851 5851 5851 5851 5851 5850 5849 5849
5809 5809 5809 5809 5809 5809 5809 5810 5812 5815 5816 5818 5820 5822 5825 5826 5828 5830 5833 5834 5835 5837 5838 5839 5838 5839 5840 5841 5841 5842 5842 5842 5843 5843 5843 5844 5843 5843 5843 5843 5843 5842 5842
5802 5801 5802 5803 5802 5802 5803 5802 5803 5803 5805 5807 5809 5811 5814 5816 5818 5820 5823 5825 5826 5828 5829 5831 5832 5832 5833 5834 5835 5834 5835 5836 5836 5837 5836 5836 5836 5836 5836 5836 5836 5836 5835
5794 5793 5793 5793 5794 5794 5794 5794 5794 5794 5795 5796 5798 5801 5802 5805 5808 5809 5812 5815 5816 5818 5820 5822 5823 5824 5825 5826 5827 5829 5829 5829 5829 5829 5830 5829 5829 5829 5829 5829 5829 5828 5828
5782 5781 5781 5780 5781 5783 5783 5783 5783 5784 5785 5786 5788 5790 5792 5793 5796 5798 5801 5804 5806 5808 5810 5811 5813 5815 5816 5817 5819 5820 5820 5821 5822 5822 5822 5823 5822 5822 5822 5822 5822 5821 5820
5770 5770 5771 5770 5769 5770 5771 5771 5771 5771 5773 5775 5775 5779 5782 5782 5784 5785 5788 5792 5794 5797 5799 5800 5802 5805 5807 5808 5808 5808 5810 5811 5812 5813 5813 5814 5815 5815 5814 5814 5814 5814 5813
5757 5757 5757 5757 5757 5756 5756 5757 5758 5758 5760 5761 5763 5764 5767 5770 5772 5773 5776 5778 5781 5784 5787 5789 5790 5793 5796 5797 5798 5798 5799 5801 5803 5803 5803 5804 5805 5806 5806 5806 5805 5805 5804
5746 5745 5744 5744 5743 5741 5741 5741 5741 5743 5744 5746 5749 5751 5752 5755 5758 5761 5764 5765 5768 5770 5773 5776 5779 5782 5784 5785 5786 5788 5790 5790 5791 5792 5794 5793 5795 5796 5797 5797 5797 5797 5795
5734 5731 5729 5727 5725 5724 5720 5723 5723 5724 5726 5729 5732 5735 5736 5738 5743 5746 5750 5753 5754 5757 5761 5763 5767 5770 5773 5775 5776 5776 5778 5781 5781 5781 5782 5783 5785 5785 5787 5787 5787 5787 5786
5718 5714 5711 5707 5704 5702 5699 5698 5700 5702 5705 5708 5711 5716 5719 5720 5725 5730 5735 5739 5741 5744 5747 5750 5754 5757 5763 5765 5765 5766 5767 5771 5770 5769 5771 5773 5774 5774 5776 5776 5777 5777 5775
5705 5700 5694 5690 5686 5683 5678 5675 5676 5678 5683 5685 5686 5692 5697 5701 5705 5710 5717 5722 5726 5730 5734 5739 5742 5745 5749 5749 5750 5755 5755 5758 5759 5759 5760 5760 5762 5763 5764 5765 5765 5763 5763
5695 5690 5682 5676 5669 5662 5660 5655 5655 5659 5662 5662 5665 5669 5676 5677 5684 5690 5698 5705 5710 5714 5719 5725 5730 5732 5735 5733 5738 5739 5744 5746 5747 5745 5747 5748 5747 5751 5752 5754 5755 5753 5751
5684 5676 5670 5663 5653 5646 5643 5640 5640 5642 5643 5643 5645 5649 5652 5655 5662 5670 5679 5686 5694 5700 5706 5711 5717 5719 5719 5718 5721 5726 5730 5733 5732 5730 5732 5737 5735 5739 5738 5740 5743 5743 5742